When you browse on this site, cookies collect data to enhance your experience and personalize the content and advertising you see.
Visit our Privacy Policy to learn more. By continuing to use the site, you agree to this use of cookies and data.
  • En España
  • Lista de países
  • Para 7 días
  • Temperatura del agua
  • El tiempo en el mapa
  • Informadores
  • user-avatar
    Iniciar sesión

    Tiempo cada hora Oran

    Hoy, 19 Octubre, Sábado

    Tiempo Temperatura Precipitaciones Viento Presión Humedad
    00:00 +22°C° 0 mm 1 mps 750 mmHg 52%
    01:00 +21°C° 0 mm 1 mps 750 mmHg 53%
    02:00 +20°C° 0 mm 2 mps 750 mmHg 54%
    03:00 +20°C° 0 mm 2 mps 749 mmHg 55%
    04:00 +20°C° 0 mm 2 mps 749 mmHg 57%
    05:00 +19°C° 0 mm 2 mps 749 mmHg 59%
    06:00 +19°C° 0 mm 3 mps 749 mmHg 60%
    07:00 +21°C° 0 mm 3 mps 749 mmHg 55%
    08:00 +22°C° 0 mm 3 mps 749 mmHg 50%
    09:00 +25°C° 0 mm 3 mps 750 mmHg 45%
    10:00 +26°C° 0 mm 4 mps 749 mmHg 44%
    11:00 +27°C° 0 mm 4 mps 749 mmHg 43%
    12:00 +28°C° 0 mm 4 mps 749 mmHg 43%
    13:00 +28°C° 0 mm 4 mps 748 mmHg 45%
    14:00 +27°C° 0 mm 4 mps 748 mmHg 48%
    15:00 +27°C° 0 mm 4 mps 747 mmHg 51%
    16:00 +26°C° 0 mm 4 mps 747 mmHg 54%
    17:00 +25°C° 0 mm 3 mps 747 mmHg 58%
    18:00 +24°C° 0 mm 3 mps 747 mmHg 62%
    19:00 +24°C° 0 mm 3 mps 747 mmHg 63%
    20:00 +24°C° 0 mm 3 mps 747 mmHg 63%
    21:00 +23°C° 0 mm 2 mps 747 mmHg 64%
    22:00 +23°C° 0 mm 2 mps 747 mmHg 63%
    23:00 +23°C° 0 mm 2 mps 747 mmHg 63%

    Mañana, 20 Octubre, Domingo

    Tiempo Temperatura Precipitaciones Viento Presión Humedad
    00:00 +23°C° 0 mm 2 mps 747 mmHg 63%
    01:00 +23°C° 0 mm 2 mps 747 mmHg 63%
    02:00 +23°C° 0 mm 2 mps 747 mmHg 63%
    03:00 +21°C° 0 mm 2 mps 747 mmHg 64%
    04:00 +21°C° 0 mm 2 mps 747 mmHg 65%
    05:00 +21°C° 0 mm 2 mps 747 mmHg 66%
    06:00 +21°C° 0 mm 2 mps 747 mmHg 67%
    07:00 +23°C° 0 mm 2 mps 747 mmHg 67%
    08:00 +24°C° 0 mm 3 mps 748 mmHg 67%
    09:00 +24°C° 0 mm 3 mps 748 mmHg 67%
    10:00 +23°C° 0 mm 5 mps 748 mmHg 66%
    11:00 +22°C° 0 mm 7 mps 748 mmHg 65%
    12:00 +22°C° 0 mm 8 mps 748 mmHg 64%
    13:00 +22°C° 0.4 mm 8 mps 748 mmHg 62%
    14:00 +22°C° 0.4 mm 7 mps 749 mmHg 61%
    15:00 +22°C° 0.4 mm 7 mps 749 mmHg 59%
    16:00 +21°C° 0.3 mm 6 mps 749 mmHg 60%
    17:00 +21°C° 0.3 mm 6 mps 749 mmHg 62%
    18:00 +20°C° 0.3 mm 6 mps 750 mmHg 63%
    19:00 +19°C° 0.7 mm 5 mps 750 mmHg 67%
    20:00 +17°C° 0.7 mm 5 mps 751 mmHg 72%
    21:00 +18°C° 0.7 mm 4 mps 751 mmHg 76%
    22:00 +17°C° 1.2 mm 4 mps 751 mmHg 78%
    23:00 +17°C° 1.2 mm 3 mps 751 mmHg 80%

    Pasado mañana, 21 Octubre, Lunes

    Tiempo Temperatura Precipitaciones Viento Presión Humedad
    00:00 +17°C° 1.2 mm 3 mps 751 mmHg 82%
    01:00 +17°C° 0.6 mm 3 mps 751 mmHg 81%
    02:00 +17°C° 0.6 mm 3 mps 751 mmHg 81%
    03:00 +17°C° 0.6 mm 3 mps 751 mmHg 80%
    04:00 +17°C° 0 mm 2 mps 751 mmHg 78%
    05:00 +17°C° 0 mm 2 mps 751 mmHg 77%
    06:00 +17°C° 0 mm 2 mps 751 mmHg 75%
    07:00 +18°C° 0 mm 1 mps 752 mmHg 72%
    08:00 +18°C° 0 mm 1 mps 752 mmHg 70%
    09:00 +19°C° 0 mm 1 mps 752 mmHg 67%
    10:00 +19°C° 0 mm 1 mps 752 mmHg 65%
    11:00 +19°C° 0 mm 1 mps 752 mmHg 62%
    12:00 +20°C° 0 mm 1 mps 752 mmHg 60%
    13:00 +19°C° 0.1 mm 2 mps 752 mmHg 59%
    14:00 +19°C° 0.1 mm 2 mps 752 mmHg 59%
    15:00 +20°C° 0.1 mm 3 mps 751 mmHg 58%
    16:00 +19°C° 0.2 mm 3 mps 751 mmHg 61%
    17:00 +19°C° 0.2 mm 3 mps 751 mmHg 64%
    18:00 +18°C° 0.2 mm 3 mps 751 mmHg 66%
    19:00 +18°C° 0.5 mm 4 mps 751 mmHg 70%
    20:00 +16°C° 0.5 mm 5 mps 752 mmHg 73%
    21:00 +16°C° 0.5 mm 5 mps 752 mmHg 76%
    22:00 +15°C° 3.5 mm 4 mps 752 mmHg 79%
    23:00 +16°C° 3.5 mm 3 mps 752 mmHg 82%

    22 Octubre, Martes

    Tiempo Temperatura Precipitaciones Viento Presión Humedad
    00:00 +14°C° 3.5 mm 3 mps 751 mmHg 84%
    01:00 +15°C° 0.6 mm 2 mps 751 mmHg 82%
    02:00 +15°C° 0.6 mm 2 mps 751 mmHg 80%
    03:00 +16°C° 0.6 mm 1 mps 750 mmHg 77%
    04:00 +16°C° 0.1 mm 1 mps 750 mmHg 77%
    05:00 +16°C° 0.1 mm 1 mps 750 mmHg 77%
    06:00 +16°C° 0.1 mm 1 mps 750 mmHg 76%
    07:00 +16°C° 0.2 mm 1 mps 750 mmHg 77%
    08:00 +16°C° 0.2 mm 1 mps 749 mmHg 78%
    09:00 +15°C° 0.2 mm 0 mps 749 mmHg 78%
    10:00 +16°C° 0.4 mm 1 mps 749 mmHg 78%
    11:00 +16°C° 0.4 mm 1 mps 749 mmHg 78%
    12:00 +16°C° 0.4 mm 2 mps 748 mmHg 78%
    13:00 +15°C° 0.7 mm 2 mps 748 mmHg 78%
    14:00 +14°C° 0.7 mm 3 mps 747 mmHg 78%
    15:00 +13°C° 0.7 mm 3 mps 747 mmHg 79%
    16:00 +13°C° 1.5 mm 3 mps 747 mmHg 80%
    17:00 +13°C° 1.5 mm 3 mps 747 mmHg 82%
    18:00 +13°C° 1.5 mm 3 mps 747 mmHg 84%
    19:00 +13°C° 0.8 mm 4 mps 747 mmHg 84%
    20:00 +13°C° 0.8 mm 5 mps 747 mmHg 83%
    21:00 +13°C° 0.8 mm 6 mps 747 mmHg 83%
    22:00 +13°C° 1.1 mm 6 mps 746 mmHg 85%
    23:00 +13°C° 1.1 mm 5 mps 746 mmHg 86%

    23 Octubre, Miércoles

    Tiempo Temperatura Precipitaciones Viento Presión Humedad
    00:00 +13°C° 1.1 mm 5 mps 745 mmHg 87%
    01:00 +12°C° 1.8 mm 7 mps 745 mmHg 86%
    02:00 +12°C° 1.8 mm 8 mps 744 mmHg 85%
    03:00 +12°C° 1.8 mm 10 mps 744 mmHg 84%
    04:00 +13°C° 0.8 mm 10 mps 744 mmHg 78%
    05:00 +14°C° 0.8 mm 11 mps 744 mmHg 73%
    06:00 +14°C° 0.8 mm 12 mps 744 mmHg 67%
    07:00 +15°C° 0.5 mm 13 mps 743 mmHg 66%
    08:00 +15°C° 0.5 mm 15 mps 743 mmHg 64%
    09:00 +15°C° 0.5 mm 16 mps 743 mmHg 63%
    10:00 +16°C° 0.2 mm 16 mps 743 mmHg 60%
    11:00 +18°C° 0.2 mm 17 mps 743 mmHg 58%
    12:00 +18°C° 0.2 mm 18 mps 743 mmHg 55%
    13:00 +18°C° 0.1 mm 18 mps 744 mmHg 55%
    14:00 +18°C° 0.1 mm 18 mps 744 mmHg 55%
    15:00 +18°C° 0.1 mm 18 mps 744 mmHg 54%
    16:00 +18°C° 0 mm 18 mps 744 mmHg 54%
    17:00 +18°C° 0 mm 17 mps 745 mmHg 54%
    18:00 +18°C° 0 mm 16 mps 745 mmHg 54%
    19:00 +18°C° 0 mm 16 mps 745 mmHg 55%
    20:00 +18°C° 0 mm 15 mps 746 mmHg 56%
    21:00 +18°C° 0 mm 15 mps 746 mmHg 58%
    22:00 +17°C° 0 mm 15 mps 746 mmHg 60%
    23:00 +17°C° 0 mm 15 mps 747 mmHg 63%

    24 Octubre, Jueves

    Tiempo Temperatura Precipitaciones Viento Presión Humedad
    00:00 +17°C° 0 mm 15 mps 747 mmHg 65%
    01:00 +17°C° 0.2 mm 15 mps 747 mmHg 65%
    02:00 +17°C° 0.2 mm 14 mps 747 mmHg 65%
    03:00 +17°C° 0.2 mm 14 mps 747 mmHg 65%
    04:00 +15°C° 0.1 mm 13 mps 747 mmHg 65%
    05:00 +15°C° 0.1 mm 13 mps 747 mmHg 66%
    06:00 +15°C° 0.1 mm 13 mps 747 mmHg 66%
    07:00 +17°C° 0 mm 13 mps 747 mmHg 64%
    08:00 +17°C° 0 mm 14 mps 748 mmHg 62%
    09:00 +18°C° 0 mm 14 mps 748 mmHg 60%
    10:00 +18°C° 0 mm 14 mps 748 mmHg 59%
    11:00 +19°C° 0 mm 14 mps 748 mmHg 58%
    12:00 +19°C° 0 mm 15 mps 749 mmHg 57%
    13:00 +19°C° 0 mm 14 mps 749 mmHg 57%
    14:00 +19°C° 0 mm 13 mps 748 mmHg 57%
    15:00 +19°C° 0 mm 12 mps 748 mmHg 57%
    16:00 +18°C° 0 mm 11 mps 749 mmHg 62%
    17:00 +18°C° 0 mm 9 mps 749 mmHg 66%
    18:00 +17°C° 0 mm 8 mps 749 mmHg 70%
    19:00 +17°C° 0 mm 7 mps 750 mmHg 72%
    20:00 +17°C° 0 mm 6 mps 750 mmHg 74%
    21:00 +17°C° 0 mm 6 mps 750 mmHg 76%
    22:00 +17°C° 0 mm 6 mps 750 mmHg 76%
    23:00 +17°C° 0 mm 6 mps 751 mmHg 77%
    Mostrar más